[[{"header":{"parameterUnit":"m.s-1","parameterCategory":1,"la1":30.2991,"la2":30.254,"lo1":-89.0895,"lo2":-89.0444,"dy":0.0017,"dx":0.0017,"nx":28,"ny":28,"refTime":"2024-11-22T03:00:00:Z","depth":0,"parameterNumber":2,"parameterNumberName":"U-component_of_WINDS"},"data":[0,0,0,0,0,0,0,0,0,0,0,0,0,0,0,0,0,0,0,0,0,0,0,0,0,0,0,0,0,0,0,0,0,0,0,0,0,0,0,0,0,0,0,0,0,0,0,0,0,0,0,0,0,0,0,0,0,0,-2.9314,-2.9314,0,-2.9319,-2.9319,-2.9319,-2.9247,-2.9245,-2.9243,-2.9241,-2.9247,-2.9249,-2.9251,0,0,0,0,0,0,0,0,0,0,0,0,0,-2.924,-2.9242,-2.9314,-2.9314,-2.9314,-2.9319,-2.9319,-2.9319,-2.9247,-2.9245,-2.9242,-2.924,-2.9247,-2.9249,-2.9251,0,0,0,0,0,0,0,0,0,0,0,0,0,-2.9262,-2.9242,-2.9314,-2.9278,-2.9275,-2.9319,-2.9319,-2.932,-2.9248,-2.9245,-2.9242,-2.9239,-2.9246,-2.9249,-2.9252,-2.933,0,0,-2.9261,-2.9262,0,0,0,0,0,0,0,0,-2.926,-2.9264,-2.9284,-2.9281,-2.9277,-2.9279,-2.9296,-2.9323,-2.9248,-2.9258,-2.9241,-2.9238,-2.926,-2.9262,-2.927,-2.933,-2.9331,-2.9261,-2.9263,-2.9264,-2.9265,0,0,0,0,0,0,0,-2.9259,-2.9264,-2.9316,-2.9284,-2.928,-2.9262,-2.9262,-2.9301,-2.9276,-2.9257,-2.9252,-2.9254,-2.9258,-2.9267,-2.9269,-2.9331,-2.9261,-2.9264,-2.9266,-2.9267,-2.9455,-2.9458,0,0,0,0,0,0,-2.9262,-2.9263,-2.9316,-2.9316,-2.9261,-2.9266,-2.9266,-2.9282,-2.9275,-2.9271,-2.9256,-2.925,-2.9263,-2.9266,-2.9269,-2.936,-2.9264,-2.9267,-2.9269,-2.9452,-2.9456,-2.9459,0,0,0,0,0,0,-2.9261,-2.9268,-2.9315,-2.9288,-2.9293,-2.927,-2.9289,-2.9283,-2.9292,-2.9274,-2.927,-2.927,-2.9261,-2.9265,-2.9315,-2.9359,-2.9269,-2.9271,-2.9448,-2.9453,-2.9457,-2.9542,0,0,0,0,0,0,-2.9259,-2.9268,-2.9297,-2.9289,-2.9295,-2.9362,-2.9292,-2.9286,-2.9297,-2.929,-2.9286,-2.9282,-2.9259,-2.9311,-2.9318,-2.9361,-2.9274,-2.9444,-2.945,-2.9456,-2.9535,-2.9549,-2.9561,0,0,0,0,0,-2.9257,-2.9321,-2.9299,-2.9306,-2.9331,-2.9364,-2.9367,-2.9339,-2.9301,-2.9331,-2.9319,-2.9282,-2.9353,-2.9317,-2.9324,-2.9369,-2.9441,-2.9448,-2.9455,-2.9529,-2.9546,-2.956,0,0,0,0,0,0,-2.9335,-2.9319,-2.9295,-2.9359,-2.9363,-2.9352,-2.9388,-2.9358,-2.9374,-2.9366,-2.933,-2.933,-2.9386,-2.9382,-2.9342,-2.9444,-2.939,-2.9399,-2.9444,-2.946,-2.9473,-2.9472,-2.9276,0,0,0,0,0,-2.936,-2.9388,-2.9373,-2.943,-2.9434,-2.9411,-2.9424,-2.9402,-2.9406,-2.9407,-2.94,-2.9405,-2.9428,-2.9444,-2.9464,-2.9534,-2.9532,-2.9569,-2.9582,-2.9592,-2.96,-2.9636,-2.9652,-2.9482,-2.9482,-2.9482,0,0,-2.9411,-2.9406,-2.9426,-2.9446,-2.9447,-2.9477,-2.9413,-2.9448,-2.9469,-2.9413,-2.9459,-2.9454,-2.9457,-2.9517,-2.9544,-2.9516,-2.9647,-2.9601,-2.961,-2.9612,-2.9645,-2.9661,-2.9676,-2.9487,-2.9486,-2.9486,0,0,-2.952,-2.9519,-2.9566,-2.9569,-2.9571,-2.9555,-2.9566,-2.956,-2.9554,-2.96,-2.9558,-2.9583,-2.9624,-2.9628,-2.9635,-2.9745,-2.9711,-2.9752,-2.9819,-2.9855,-2.9868,-2.988,-2.9918,-2.9933,-2.976,-2.9761,-2.9761,0,-2.9583,-2.9626,-2.9595,-2.9632,-2.9642,-2.9591,-2.9639,-2.9643,-2.9652,-2.966,-2.9629,-2.9678,-2.9677,-2.9737,-2.9764,-2.9772,-2.9783,-2.9752,-2.9869,-2.988,-2.9891,-2.9927,-2.9942,-2.9766,-2.9765,-2.9765,-2.9764,0,-2.9704,-2.9735,-2.9773,-2.9782,-2.9796,-2.9839,-2.9813,-2.9831,-2.9808,-2.9795,-2.9843,-2.9839,-2.9858,-2.987,-2.9848,-2.9927,-2.991,-2.9875,-2.982,-2.9912,-2.9946,-2.9959,-2.9773,-2.9771,-2.9769,-2.9768,0,0,-2.9862,-2.9853,-2.9867,-2.9871,-2.9869,-2.9892,-2.9932,-2.995,-2.9966,-2.9974,-3.0006,-3.0042,-3.0009,-3.0017,-2.9995,-3.0026,-3.0112,-2.9986,-2.9986,-3.0009,-3.0199,-3.0225,-3.0241,-3.009,-3.0093,-3.0095,-3.0198,0,-2.9967,-3.0034,-3.0006,-3.0076,-3.0104,-3.0056,-3.0091,-3.0094,-3.0083,-3.0105,-3.0093,-3.0118,-3.0073,-3.0078,-3.0107,-3.0096,-3.015,-3.0088,-3.0119,-3.0121,-3.0119,-3.0259,-3.0287,-3.0384,-3.0211,-3.0213,-3.0215,0,-3.0098,-3.0111,-3.0183,-3.0176,-3.0187,-3.0219,-3.0232,-3.0254,-3.0256,-3.0246,-3.0255,-3.0225,-3.0264,-3.021,-3.0262,-3.0221,-3.0232,-3.0229,-3.0232,-3.0233,-3.0173,-3.0263,-3.0415,-3.0429,-3.0235,-3.0234,-3.0232,0,-3.0205,-3.0241,-3.0288,-3.0293,-3.0286,-3.0309,-3.0307,-3.0306,-3.0319,-3.0331,-3.0338,-3.0355,-3.0364,-3.0378,-3.0353,-3.0316,-3.0409,-3.0353,-3.0401,-3.0402,-3.0422,-3.0421,-3.0577,-3.0431,-3.0431,-3.0431,-3.043,0,-3.0325,-3.0371,-3.0336,-3.0365,-3.0415,-3.0383,-3.0434,-3.0427,-3.0426,-3.0453,-3.0413,-3.044,-3.0406,-3.0429,-3.041,-3.0456,-3.0461,-3.0453,-3.0448,-3.0456,-3.0457,-3.0463,-3.0455,-3.0434,-3.0434,-3.0433,-3.0432,0,-3.0453,-3.0431,-3.048,-3.0469,-3.0468,-3.0505,-3.0496,-3.0522,-3.0509,-3.0543,-3.055,-3.0528,-3.0553,-3.053,-3.0554,-3.0542,-3.0602,-3.0587,-3.0602,-3.0597,-3.0646,-3.0642,-3.0811,-3.0831,-3.0673,-3.0674,-3.0676,0,-3.053,-3.0564,-3.0557,-3.0572,-3.0573,-3.0598,-3.061,-3.0579,-3.0594,-3.0598,-3.0624,-3.0646,-3.0661,-3.0703,-3.069,-3.0708,-3.0692,-3.075,-3.0695,-3.0702,-3.0692,-3.069,-3.0693,-3.0762,-3.0763,-3.0765,-3.0766,0,-3.067,-3.0657,-3.0676,-3.0691,-3.0706,-3.0717,-3.0724,-3.0739,-3.0708,-3.0726,-3.075,-3.0763,-3.0787,-3.0808,-3.0822,-3.082,-3.0788,-3.0784,-3.0796,-3.0805,-3.0811,-3.0808,-3.0631,-3.078,-3.0779,-3.0778,-3.0777,-3.0776,-3.0774,-3.0802,-3.0801,-3.0823,-3.0825,-3.0833,-3.0857,-3.0846,-3.0866,-3.0883,-3.0864,-3.0894,-3.0895,-3.091,-3.0912,-3.0935,-3.091,-3.0928,-3.0932,-3.0937,-3.0944,-3.0808,-3.0937,-3.0937,-3.0937,-3.0936,-3.0936,0,-3.0911,-3.0907,-3.0928,-3.0939,-3.0957,-3.0925,-3.0931,-3.0948,-3.0975,-3.0978,-3.0994,-3.1022,-3.1043,-3.1031,-3.1049,-3.1069,-3.1055,-3.1075,-3.1073,-3.1073,-3.0965,-3.0952,-3.1086,-3.1086,-3.1086,-3.1086,-3.1086,-3.1086,-3.0984,-3.1029,-3.1016,-3.1062,-3.1058,-3.1087,-3.1093,-3.11,-3.1102,-3.1135,-3.1152,-3.1144,-3.1142,-3.1159,-3.1176,-3.1172,-3.118,-3.1205,-3.1196,-3.1095,-3.108,-3.1066,-3.1054,-3.1207,-3.1208,-3.1302,-3.1302,-3.1303]},{"header":{"parameterUnit":"m.s-1","parameterCategory":1,"la1":30.2991,"la2":30.254,"lo1":-89.0895,"lo2":-89.0444,"dy":0.0017,"dx":0.0017,"nx":28,"ny":28,"refTime":"2024-11-22T03:00:00:Z","depth":0,"parameterNumber":3,"parameterNumberName":"V-component_of_WINDS"},"data":[0,0,0,0,0,0,0,0,0,0,0,0,0,0,0,0,0,0,0,0,0,0,0,0,0,0,0,0,0,0,0,0,0,0,0,0,0,0,0,0,0,0,0,0,0,0,0,0,0,0,0,0,0,0,0,0,0,0,-1.2903,-1.2904,0,-1.2957,-1.2958,-1.2958,-1.2967,-1.2967,-1.2966,-1.2966,-1.3021,-1.3023,-1.3025,0,0,0,0,0,0,0,0,0,0,0,0,0,-1.2807,-1.2809,-1.2903,-1.2904,-1.2905,-1.2957,-1.2958,-1.2959,-1.2967,-1.2967,-1.2966,-1.2966,-1.302,-1.3023,-1.3025,0,0,0,0,0,0,0,0,0,0,0,0,0,-1.2854,-1.2809,-1.2903,-1.2915,-1.2917,-1.2957,-1.2958,-1.2959,-1.2967,-1.2967,-1.2966,-1.2965,-1.302,-1.3022,-1.3025,-1.3057,0,0,-1.3034,-1.3035,0,0,0,0,0,0,0,0,-1.2851,-1.2857,-1.2913,-1.2914,-1.2916,-1.2955,-1.2944,-1.2992,-1.2968,-1.2948,-1.2966,-1.2965,-1.2999,-1.3004,-1.3016,-1.3059,-1.3062,-1.3034,-1.3036,-1.3037,-1.3038,0,0,0,0,0,0,0,-1.2848,-1.2855,-1.2925,-1.2914,-1.2916,-1.2918,-1.2924,-1.2953,-1.2977,-1.295,-1.2951,-1.2957,-1.3,-1.3013,-1.3017,-1.3062,-1.3034,-1.3037,-1.3038,-1.3039,-1.3134,-1.3134,0,0,0,0,0,0,-1.2842,-1.2852,-1.2923,-1.2926,-1.2881,-1.292,-1.2927,-1.2943,-1.2977,-1.2981,-1.2957,-1.2957,-1.3008,-1.3014,-1.3019,-1.3057,-1.3037,-1.304,-1.3041,-1.3133,-1.3134,-1.3135,0,0,0,0,0,0,-1.284,-1.2849,-1.2921,-1.2889,-1.2899,-1.2922,-1.2941,-1.2945,-1.2957,-1.2983,-1.2987,-1.2966,-1.3008,-1.3015,-1.3047,-1.3059,-1.3041,-1.3044,-1.3132,-1.3133,-1.3134,-1.3135,0,0,0,0,0,0,-1.2837,-1.2848,-1.286,-1.289,-1.29,-1.2948,-1.2942,-1.2946,-1.2962,-1.2962,-1.2992,-1.2996,-1.3008,-1.3043,-1.305,-1.3063,-1.3046,-1.3131,-1.3133,-1.3134,-1.3134,-1.3136,-1.3138,0,0,0,0,0,-1.2834,-1.2858,-1.2861,-1.2869,-1.2916,-1.2949,-1.2955,-1.2968,-1.2963,-1.2975,-1.2992,-1.2995,-1.3057,-1.3046,-1.3054,-1.3068,-1.313,-1.3132,-1.3134,-1.3133,-1.3136,-1.3138,0,0,0,0,0,0,-1.283,-1.2863,-1.2866,-1.29,-1.2922,-1.295,-1.2967,-1.2971,-1.2994,-1.2993,-1.3009,-1.3016,-1.3047,-1.3061,-1.3048,-1.31,-1.3093,-1.3097,-1.309,-1.3092,-1.3094,-1.309,-1.3048,0,0,0,0,0,-1.2833,-1.2857,-1.2884,-1.2912,-1.2923,-1.2943,-1.2957,-1.2966,-1.2989,-1.2998,-1.3016,-1.3038,-1.3063,-1.3078,-1.3102,-1.3136,-1.3142,-1.315,-1.3152,-1.3153,-1.3156,-1.3174,-1.3177,-1.3141,-1.3141,-1.3141,0,0,-1.284,-1.2861,-1.2875,-1.2912,-1.293,-1.2953,-1.295,-1.2976,-1.2994,-1.3002,-1.3033,-1.3047,-1.3073,-1.3106,-1.3121,-1.3118,-1.3167,-1.3155,-1.3156,-1.3159,-1.3176,-1.318,-1.3183,-1.3142,-1.3142,-1.3141,0,0,-1.2865,-1.2883,-1.2908,-1.2926,-1.2952,-1.2965,-1.2971,-1.2999,-1.3009,-1.304,-1.3047,-1.3068,-1.311,-1.3127,-1.3142,-1.3172,-1.3175,-1.3179,-1.3189,-1.3207,-1.321,-1.3212,-1.3223,-1.3226,-1.3182,-1.3182,-1.3182,0,-1.287,-1.2907,-1.292,-1.2946,-1.2961,-1.2969,-1.2994,-1.3011,-1.3044,-1.3054,-1.3051,-1.3103,-1.312,-1.3157,-1.3164,-1.3176,-1.3183,-1.3176,-1.3208,-1.3211,-1.3214,-1.3224,-1.3227,-1.3182,-1.3182,-1.3182,-1.3182,0,-1.2911,-1.2936,-1.2953,-1.2985,-1.3002,-1.3027,-1.3045,-1.3061,-1.3067,-1.3081,-1.3112,-1.3134,-1.3162,-1.3171,-1.3178,-1.3209,-1.3206,-1.3205,-1.3198,-1.3217,-1.3227,-1.3231,-1.3183,-1.3182,-1.3182,-1.3182,0,0,-1.2935,-1.2974,-1.2979,-1.2993,-1.3023,-1.3043,-1.3067,-1.3095,-1.3108,-1.313,-1.3151,-1.3186,-1.3185,-1.3201,-1.321,-1.3226,-1.3247,-1.3223,-1.3224,-1.3226,-1.3282,-1.3282,-1.3286,-1.325,-1.3251,-1.3251,-1.3279,0,-1.2963,-1.3008,-1.3021,-1.3059,-1.3082,-1.3089,-1.3111,-1.3131,-1.3144,-1.3165,-1.3179,-1.3203,-1.3201,-1.321,-1.3226,-1.3242,-1.3259,-1.324,-1.3269,-1.327,-1.3262,-1.3291,-1.3291,-1.3317,-1.3283,-1.3284,-1.3284,0,-1.3001,-1.3024,-1.3064,-1.309,-1.31,-1.3119,-1.3145,-1.3165,-1.3188,-1.3196,-1.3214,-1.3221,-1.3247,-1.3239,-1.3274,-1.3261,-1.3274,-1.3283,-1.3285,-1.3288,-1.3278,-1.3294,-1.3325,-1.3329,-1.329,-1.329,-1.3289,0,-1.3014,-1.3055,-1.3084,-1.3096,-1.3127,-1.314,-1.3153,-1.3175,-1.3191,-1.3213,-1.3223,-1.3248,-1.3261,-1.328,-1.3294,-1.3287,-1.3328,-1.3321,-1.3335,-1.3335,-1.3344,-1.3343,-1.3376,-1.3352,-1.3352,-1.3352,-1.3352,0,-1.3043,-1.3067,-1.309,-1.3108,-1.3134,-1.3149,-1.3175,-1.3189,-1.3208,-1.3228,-1.3237,-1.3255,-1.3272,-1.3293,-1.3304,-1.3332,-1.3338,-1.3345,-1.3347,-1.3344,-1.3343,-1.3352,-1.3351,-1.3353,-1.3353,-1.3353,-1.3353,0,-1.3062,-1.3078,-1.311,-1.3137,-1.3144,-1.3162,-1.3185,-1.3202,-1.3215,-1.3241,-1.3247,-1.3268,-1.3293,-1.3308,-1.334,-1.3347,-1.3377,-1.3379,-1.3369,-1.337,-1.3383,-1.3382,-1.3424,-1.343,-1.3402,-1.3402,-1.3403,0,-1.308,-1.3098,-1.3127,-1.3141,-1.3154,-1.3177,-1.3192,-1.3207,-1.3223,-1.325,-1.3264,-1.3289,-1.331,-1.335,-1.3367,-1.3391,-1.3394,-1.3407,-1.3397,-1.3393,-1.3393,-1.3392,-1.3393,-1.3408,-1.3408,-1.3409,-1.3409,0,-1.3109,-1.3115,-1.3138,-1.3162,-1.318,-1.3201,-1.3221,-1.3232,-1.325,-1.3267,-1.3292,-1.3309,-1.3341,-1.3366,-1.3391,-1.3405,-1.341,-1.3412,-1.3416,-1.3412,-1.3406,-1.3409,-1.3373,-1.3411,-1.341,-1.341,-1.341,-1.341,-1.3127,-1.3143,-1.3166,-1.319,-1.3206,-1.3225,-1.3242,-1.3257,-1.3279,-1.3306,-1.3313,-1.334,-1.3361,-1.3396,-1.341,-1.3431,-1.3429,-1.3436,-1.3437,-1.3439,-1.3438,-1.3403,-1.3436,-1.3436,-1.3436,-1.3436,-1.3436,0,-1.3156,-1.317,-1.3192,-1.322,-1.3239,-1.3242,-1.3264,-1.3279,-1.3303,-1.3322,-1.3343,-1.3372,-1.3396,-1.3415,-1.344,-1.3452,-1.3455,-1.3458,-1.3457,-1.346,-1.3439,-1.3432,-1.3456,-1.3456,-1.3456,-1.3456,-1.3456,-1.3456,-1.3173,-1.3201,-1.321,-1.3246,-1.3261,-1.3287,-1.3299,-1.3316,-1.3332,-1.3364,-1.3384,-1.3396,-1.3415,-1.3441,-1.3463,-1.3468,-1.3477,-1.3479,-1.3484,-1.3464,-1.3462,-1.346,-1.3454,-1.3481,-1.3481,-1.3504,-1.3504,-1.3504]}]]